This is the latest recevied weather packets stored in our database for station/object LU8FJH-13. If no packets are shown the sender has not sent any weather packets the latest 10 day(s).
| Time | Temp. | Humidity | Pressure | Rain* | Wind** | Luminosity | Snow |
|---|---|---|---|---|---|---|---|
| 1777955819 | 18.89° C | 76% | 1010.9 hPa | 0 mm | - | - | - |
| 1777955279 | 18.89° C | 75% | 1011 hPa | 0 mm | - | - | - |
| 1777954740 | 19.44° C | 72% | 1011.2 hPa | 0 mm | - | - | - |
| 1777954199 | 19.44° C | 71% | 1011.2 hPa | 0 mm | - | - | - |
| 1777953659 | 19.44° C | 70% | 1011.3 hPa | 0 mm | - | - | - |
| 1777953119 | 19.44° C | 68% | 1011 hPa | 0 mm | - | - | - |
| 1777952579 | 19.44° C | 67% | 1011.1 hPa | 0 mm | - | - | - |
| 1777952039 | 19.44° C | 65% | 1010.8 hPa | 0 mm | - | - | - |
| 1777951499 | 20° C | 65% | 1010.8 hPa | 0 mm | - | - | - |
| 1777950959 | 20° C | 62% | 1010.7 hPa | 0 mm | - | - | - |
| 1777950419 | 20° C | 61% | 1010.8 hPa | 0 mm | - | - | - |
| 1777949879 | 20° C | 62% | 1010.7 hPa | 0 mm | - | - | - |
| 1777949339 | 20° C | 61% | 1010.8 hPa | 0 mm | - | - | - |
| 1777948799 | 20° C | 61% | 1010.7 hPa | 0 mm | - | - | - |
| 1777948259 | 20° C | 62% | 1010.6 hPa | 0 mm | - | - | - |
| 1777947719 | 19.44° C | 61% | 1010.5 hPa | 0 mm | - | - | - |
| 1777947179 | 19.44° C | 61% | 1010.5 hPa | 0 mm | - | - | - |
| 1777946639 | 19.44° C | 59% | 1010.4 hPa | 0 mm | - | - | - |
| 1777946099 | 19.44° C | 59% | 1010.3 hPa | 0 mm | - | - | - |
| 1777945559 | 18.89° C | 62% | 1010.5 hPa | 0 mm | - | - | - |
| 1777945019 | 18.89° C | 63% | 1010.5 hPa | 0 mm | - | - | - |
| 1777944479 | 18.89° C | 62% | 1010.3 hPa | 0 mm | - | - | - |
| 1777943939 | 18.89° C | 61% | 1010.2 hPa | 0 mm | - | - | - |
| 1777943399 | 19.44° C | 61% | 1010.4 hPa | 0 mm | - | - | - |
| 1777942859 | 19.44° C | 61% | 1010.3 hPa | 0 mm | - | - | - |
* Rain latest hour (hover to see other rain measurements)
** Current wind speed in m/s (hover to see current wind gust speed)